User: anonymous   Login
Location: Newark
(55.2831°N, 38.7366°E)
Time: 23:57:41
(UTC+00:00)
Language:

DIWATA 2B (PO-101) - Orbit

View from above orbital plane
View from above orbital plane
View from above satellite
View from above satellite

Ground track
Ground track

The orbit data is extracted from the following two-line orbital elements,

1 43678U 18084H   19261.37819135 -.00000034  00000-0  23319-5 0  9996
2 43678  97.8607  15.2750 0010068   8.8073 351.3320 14.91570663 48313
Epoch (UTC): 18 September 2019 09:04:35
Eccentricity: 0.0010068
inclination: 97.8607°
perigee height: 586 km
apogee height: 600 km
right ascension of ascending node: 15.2750°
argument of perigee: 8.8073°
revolutions per day: 14.91570663
mean anomaly at epoch: 351.3320°
orbit number at epoch: 4831

The dashed part of the orbit path shows where the satellite is in the earth's shadow,  

DLR